RYR911R ESMS-EGSS

Flight info

Callsign RYR911R
Flight time 1h 28m
Altitude 38000
Route DISGO DCT OLPIB M611 LUPUR L990 NEXEN DCT GOBOT DCT NOGRO M40 RINIS
Aircraft B738/M-SDE2E3FGHIRWXY/LB1

Departure

Time 2026-04-21 18:21
Airport Malmö Sturup Airport (ESMS)

Arrival

Time 2026-04-21 19:49
Airport London Stansted Airport (EGSS)
Time Latitude Longitude Altitude Speed Heading
2026-04-21 17:55 55.54012 13.36786 230 ft 0 kts 353°
2026-04-21 18:13 55.54007 13.36787 230 ft 4 kts 353°
2026-04-21 18:14 55.53954 13.36792 233 ft 4 kts 23°
2026-04-21 18:14 55.53937 13.36766 232 ft 3 kts 80°
2026-04-21 18:14 55.53935 13.36729 234 ft 3 kts 83°
2026-04-21 18:15 55.53934 13.36722 234 ft 1 kts 83°
2026-04-21 18:17 55.53936 13.36750 230 ft 6 kts 83°
2026-04-21 18:17 55.53945 13.36885 230 ft 16 kts 83°
2026-04-21 18:17 55.53957 13.37063 230 ft 15 kts 83°
2026-04-21 18:17 55.53978 13.37216 230 ft 13 kts 46°
2026-04-21 18:18 55.54052 13.37238 230 ft 9 kts 356°
2026-04-21 18:18 55.54122 13.37225 230 ft 12 kts 353°
2026-04-21 18:18 55.54217 13.37204 232 ft 16 kts 353°
2026-04-21 18:18 55.54342 13.37180 230 ft 20 kts 354°
2026-04-21 18:19 55.54467 13.37154 230 ft 17 kts 353°
2026-04-21 18:19 55.54590 13.37137 230 ft 18 kts
2026-04-21 18:19 55.54655 13.37158 230 ft 10 kts 20°
2026-04-21 18:19 55.54724 13.37210 231 ft 12 kts 23°
2026-04-21 18:20 55.54789 13.37313 234 ft 14 kts 84°
2026-04-21 18:20 55.54706 13.37400 234 ft 20 kts 173°
2026-04-21 18:20 55.54351 13.37472 236 ft 86 kts 173°
2026-04-21 18:20 55.53548 13.37643 237 ft 144 kts 174°
2026-04-21 18:21 55.52442 13.37865 546 ft 167 kts 178°
2026-04-21 18:21 55.51225 13.38075 947 ft 191 kts 176°
2026-04-21 18:21 55.49808 13.38355 1199 ft 217 kts 175°
2026-04-21 18:21 55.48223 13.38665 1382 ft 240 kts 175°
2026-04-21 18:22 55.46488 13.38947 1736 ft 256 kts 176°
2026-04-21 18:22 55.44655 13.39183 2298 ft 267 kts 176°
2026-04-21 18:22 55.42734 13.39426 3159 ft 267 kts 176°
2026-04-21 18:22 55.40938 13.39659 3915 ft 270 kts 175°
2026-04-21 18:23 55.39057 13.39907 4676 ft 273 kts 174°
2026-04-21 18:23 55.37156 13.40160 5427 ft 276 kts 173°
2026-04-21 18:23 55.35230 13.40416 6179 ft 278 kts 173°
2026-04-21 18:23 55.33297 13.40189 6954 ft 284 kts 197°
2026-04-21 18:24 55.31628 13.38333 7691 ft 289 kts 225°
2026-04-21 18:24 55.30331 13.35618 8423 ft 292 kts 232°
2026-04-21 18:24 55.29090 13.32763 9189 ft 297 kts 233°
2026-04-21 18:24 55.27837 13.29847 9937 ft 302 kts 232°
2026-04-21 18:25 55.26557 13.26891 10626 ft 308 kts 232°
2026-04-21 18:25 55.25204 13.23793 10873 ft 332 kts 232°
2026-04-21 18:25 55.23756 13.20505 11282 ft 346 kts 232°
2026-04-21 18:25 55.22270 13.17146 11334 ft 350 kts 232°
2026-04-21 18:26 55.20782 13.13795 11352 ft 349 kts 232°
2026-04-21 18:26 55.19277 13.10416 11767 ft 355 kts 231°
2026-04-21 18:26 55.17756 13.07010 12601 ft 356 kts 231°
2026-04-21 18:26 55.16477 13.03304 13379 ft 360 kts 251°
2026-04-21 18:27 55.16010 12.99002 14156 ft 362 kts 267°
2026-04-21 18:27 55.15869 12.94581 14855 ft 367 kts 269°
2026-04-21 18:27 55.15762 12.90107 15564 ft 371 kts 269°
2026-04-21 18:27 55.15635 12.85567 16318 ft 375 kts 269°
2026-04-21 18:28 55.15481 12.80986 17055 ft 380 kts 268°
2026-04-21 18:28 55.15298 12.76355 17776 ft 385 kts 264°
2026-04-21 18:28 55.14532 12.71837 18425 ft 393 kts 242°
2026-04-21 18:28 55.13020 12.67858 19117 ft 395 kts 233°
2026-04-21 18:29 55.11359 12.64002 19719 ft 400 kts 232°
2026-04-21 18:29 55.09658 12.60106 20273 ft 406 kts 232°
2026-04-21 18:29 55.07942 12.56137 20848 ft 412 kts 232°
2026-04-21 18:29 55.06225 12.52114 21433 ft 416 kts 232°
2026-04-21 18:30 55.04493 12.48027 22000 ft 421 kts 232°
2026-04-21 18:30 55.02743 12.43889 22548 ft 427 kts 233°
2026-04-21 18:30 55.01223 12.39402 23077 ft 433 kts 246°
2026-04-21 18:30 55.00229 12.34445 23631 ft 436 kts 258°
2026-04-21 18:31 54.99777 12.29227 24133 ft 437 kts 269°
2026-04-21 18:31 54.99660 12.23918 24625 ft 439 kts 271°
2026-04-21 18:31 54.99546 12.18588 25119 ft 442 kts 270°
2026-04-21 18:31 54.99389 12.13213 25596 ft 446 kts 269°
2026-04-21 18:32 54.98913 12.07857 26041 ft 452 kts 256°
2026-04-21 18:32 54.97838 12.02690 26516 ft 455 kts 244°
2026-04-21 18:32 54.96255 11.97926 26969 ft 457 kts 233°
2026-04-21 18:32 54.94362 11.93463 27421 ft 459 kts 231°
2026-04-21 18:33 54.92428 11.89032 27834 ft 463 kts 231°
2026-04-21 18:33 54.90476 11.84547 28231 ft 466 kts 231°
2026-04-21 18:33 54.88529 11.80017 28659 ft 469 kts 232°
2026-04-21 18:33 54.86585 11.75444 29077 ft 472 kts 232°
2026-04-21 18:34 54.84640 11.70844 29488 ft 474 kts 232°
2026-04-21 18:34 54.82683 11.66226 29871 ft 477 kts 232°
2026-04-21 18:34 54.80733 11.61548 30240 ft 480 kts 235°
2026-04-21 18:34 54.78948 11.56624 30575 ft 483 kts 238°
2026-04-21 18:35 54.77806 11.53313 30798 ft 484 kts 239°
2026-04-21 18:35 54.75522 11.46578 31286 ft 485 kts 239°
2026-04-21 18:35 54.73810 11.41545 31624 ft 486 kts 238°
2026-04-21 18:35 54.72083 11.36524 32030 ft 485 kts 238°
2026-04-21 18:36 54.70353 11.31545 32488 ft 482 kts 238°
2026-04-21 18:36 54.68623 11.26595 32991 ft 479 kts 238°
2026-04-21 18:36 54.66902 11.21688 33480 ft 476 kts 238°
2026-04-21 18:36 54.65192 11.16819 33931 ft 473 kts 238°
2026-04-21 18:37 54.63487 11.11972 34344 ft 472 kts 238°
2026-04-21 18:37 54.61821 11.07102 34676 ft 471 kts 242°
2026-04-21 18:37 54.60319 11.02077 34969 ft 470 kts 244°
2026-04-21 18:37 54.58877 10.97012 35260 ft 470 kts 244°
2026-04-21 18:38 54.57461 10.91946 35562 ft 469 kts 245°
2026-04-21 18:38 54.56046 10.86883 35885 ft 468 kts 245°
2026-04-21 18:38 54.54623 10.81825 36172 ft 467 kts 244°
2026-04-21 18:38 54.53201 10.76813 36436 ft 467 kts 244°
2026-04-21 18:39 54.51749 10.71737 36739 ft 466 kts 244°
2026-04-21 18:39 54.50306 10.66721 37000 ft 466 kts 244°
2026-04-21 18:39 54.48855 10.61701 37256 ft 466 kts 244°
2026-04-21 18:39 54.47426 10.56773 37522 ft 465 kts 244°
2026-04-21 18:40 54.45999 10.51864 37803 ft 464 kts 244°
2026-04-21 18:40 54.44539 10.46848 38076 ft 464 kts 244°
2026-04-21 18:40 54.43580 10.43562 38227 ft 464 kts 244°
2026-04-21 18:40 54.41645 10.36937 38384 ft 466 kts 244°
2026-04-21 18:41 54.40183 10.31946 38383 ft 468 kts 244°
2026-04-21 18:41 54.37253 10.21974 38367 ft 467 kts 244°
2026-04-21 18:42 54.34347 10.12127 38367 ft 461 kts 244°
2026-04-21 18:42 54.31448 10.02339 38383 ft 460 kts 244°
2026-04-21 18:43 54.28546 9.92582 38378 ft 459 kts 244°
2026-04-21 18:43 54.25640 9.82854 38379 ft 459 kts 244°
2026-04-21 18:44 54.22724 9.73133 38372 ft 460 kts 243°
2026-04-21 18:44 54.19801 9.63427 38377 ft 460 kts 243°
2026-04-21 18:45 54.16859 9.53697 38363 ft 462 kts 243°
2026-04-21 18:45 54.13902 9.43958 38370 ft 463 kts 243°
2026-04-21 18:46 54.11414 9.35793 38376 ft 464 kts 243°
2026-04-21 18:46 54.08431 9.26043 38368 ft 465 kts 243°
2026-04-21 18:47 54.05432 9.16280 38371 ft 465 kts 243°
2026-04-21 18:47 54.02425 9.06530 38370 ft 466 kts 243°
2026-04-21 18:48 53.99407 8.96786 38343 ft 466 kts 243°
2026-04-21 18:48 53.96385 8.87065 38353 ft 465 kts 243°
2026-04-21 18:49 53.93362 8.77383 38349 ft 463 kts 243°
2026-04-21 18:49 53.90851 8.69369 38357 ft 462 kts 243°
2026-04-21 18:50 53.87318 8.58141 38345 ft 461 kts 243°
2026-04-21 18:50 53.84297 8.48579 38348 ft 460 kts 243°
2026-04-21 18:51 53.81257 8.38994 38361 ft 459 kts 242°
2026-04-21 18:51 53.78237 8.29512 38363 ft 457 kts 243°
2026-04-21 18:52 53.75218 8.20066 38364 ft 457 kts 242°
2026-04-21 18:52 53.72188 8.10626 38363 ft 457 kts 242°
2026-04-21 18:53 53.69152 8.01203 38358 ft 457 kts 242°
2026-04-21 18:53 53.66106 7.91786 38356 ft 458 kts 242°
2026-04-21 18:54 53.63044 7.82357 38351 ft 459 kts 242°
2026-04-21 18:54 53.59972 7.72932 38345 ft 459 kts 242°
2026-04-21 18:55 53.57389 7.65035 38350 ft 460 kts 242°
2026-04-21 18:55 53.53769 7.54012 38348 ft 461 kts 242°
2026-04-21 18:56 53.50657 7.44575 38375 ft 462 kts 242°
2026-04-21 18:56 53.47536 7.35148 38366 ft 462 kts 242°
2026-04-21 18:57 53.44403 7.25721 38366 ft 462 kts 242°
2026-04-21 18:57 53.41268 7.16322 38344 ft 462 kts 241°
2026-04-21 18:58 53.38127 7.06945 38347 ft 461 kts 241°
2026-04-21 18:58 53.34984 6.97594 38353 ft 460 kts 241°
2026-04-21 18:59 53.31839 6.88274 38357 ft 460 kts 241°
2026-04-21 18:59 53.28682 6.78954 38356 ft 459 kts 241°
2026-04-21 19:00 53.25541 6.69714 38350 ft 458 kts 241°
2026-04-21 19:00 53.22394 6.60494 38345 ft 457 kts 241°
2026-04-21 19:01 53.19239 6.51284 38374 ft 457 kts 241°
2026-04-21 19:01 53.16078 6.42088 38364 ft 457 kts 241°
2026-04-21 19:02 53.12914 6.32919 38369 ft 457 kts 241°
2026-04-21 19:02 53.09740 6.23756 38364 ft 457 kts 240°
2026-04-21 19:03 53.06562 6.14614 38366 ft 457 kts 240°
2026-04-21 19:03 53.03375 6.05479 38357 ft 457 kts 241°
2026-04-21 19:04 53.00184 5.96369 38361 ft 456 kts 241°
2026-04-21 19:04 52.96987 5.87274 38354 ft 456 kts 241°
2026-04-21 19:05 52.93781 5.78185 38356 ft 456 kts 240°
2026-04-21 19:05 52.90572 5.69121 38348 ft 456 kts 240°
2026-04-21 19:06 52.87352 5.60059 38343 ft 456 kts 240°
2026-04-21 19:06 52.84131 5.51030 38338 ft 456 kts 241°
2026-04-21 19:07 52.80900 5.42003 38354 ft 456 kts 240°
2026-04-21 19:07 52.77663 5.32992 38338 ft 456 kts 241°
2026-04-21 19:08 52.74419 5.23996 38338 ft 456 kts 241°
2026-04-21 19:08 52.71168 5.15003 38351 ft 456 kts 240°
2026-04-21 19:09 52.67903 5.06015 38334 ft 457 kts 240°
2026-04-21 19:09 52.64629 4.97033 38335 ft 457 kts 241°
2026-04-21 19:10 52.61337 4.88030 38334 ft 456 kts 241°
2026-04-21 19:10 52.58059 4.79099 38331 ft 455 kts 240°
2026-04-21 19:11 52.54783 4.70201 38325 ft 455 kts 241°
2026-04-21 19:11 52.51526 4.61387 38328 ft 454 kts 240°
2026-04-21 19:12 52.48778 4.53981 38334 ft 453 kts 240°
2026-04-21 19:12 52.44940 4.43665 38320 ft 453 kts 240°
2026-04-21 19:13 52.41657 4.34873 38338 ft 452 kts 240°
2026-04-21 19:13 52.38371 4.26107 38322 ft 452 kts 240°
2026-04-21 19:14 52.35080 4.17357 38320 ft 451 kts 240°
2026-04-21 19:14 52.31789 4.08637 38339 ft 451 kts 240°
2026-04-21 19:15 52.28512 3.99985 38337 ft 450 kts 240°
2026-04-21 19:15 52.25239 3.91379 37820 ft 438 kts 242°
2026-04-21 19:15 52.23633 3.87164 37327 ft 436 kts 240°
2026-04-21 19:16 52.22053 3.83024 36845 ft 435 kts 241°
2026-04-21 19:16 52.20458 3.78849 36381 ft 433 kts 240°
2026-04-21 19:16 52.18868 3.74689 35919 ft 431 kts 240°
2026-04-21 19:16 52.17282 3.70549 35460 ft 430 kts 241°
2026-04-21 19:17 52.14122 3.62323 34572 ft 427 kts 240°
2026-04-21 19:17 52.12528 3.58183 34082 ft 425 kts 240°
2026-04-21 19:17 52.10957 3.54115 33559 ft 424 kts 240°
2026-04-21 19:18 52.09388 3.50056 33055 ft 423 kts 239°
2026-04-21 19:18 52.07847 3.46077 32731 ft 417 kts 239°
2026-04-21 19:18 52.06286 3.42054 32335 ft 414 kts 239°
2026-04-21 19:18 52.04758 3.38120 31980 ft 410 kts 240°
2026-04-21 19:19 52.03246 3.34230 31598 ft 406 kts 239°
2026-04-21 19:19 52.01739 3.30359 31239 ft 404 kts 239°
2026-04-21 19:19 52.00750 3.27818 31005 ft 402 kts 239°
2026-04-21 19:19 51.98756 3.22715 30531 ft 398 kts 240°
2026-04-21 19:20 51.97816 3.20181 30261 ft 395 kts 245°
2026-04-21 19:20 51.96774 3.16109 29847 ft 387 kts 256°
2026-04-21 19:20 51.96076 3.10513 29287 ft 379 kts 266°
2026-04-21 19:20 51.95894 3.07663 29046 ft 376 kts 269°
2026-04-21 19:21 51.95640 3.03463 28635 ft 373 kts 267°
2026-04-21 19:21 51.95386 2.99304 28341 ft 368 kts 267°
2026-04-21 19:21 51.95127 2.95197 27921 ft 367 kts 266°
2026-04-21 19:21 51.94859 2.91097 27558 ft 364 kts 266°
2026-04-21 19:22 51.94590 2.87048 27311 ft 359 kts 266°
2026-04-21 19:22 51.94321 2.83043 27038 ft 357 kts 266°
2026-04-21 19:22 51.94047 2.79000 26789 ft 366 kts 268°
2026-04-21 19:22 51.93767 2.74871 26559 ft 371 kts 266°
2026-04-21 19:23 51.93479 2.70711 26299 ft 371 kts 266°
2026-04-21 19:23 51.93192 2.66570 26037 ft 370 kts 265°
2026-04-21 19:23 51.92906 2.62433 25786 ft 369 kts 266°
2026-04-21 19:23 51.92621 2.58298 25530 ft 369 kts 267°
2026-04-21 19:24 51.92338 2.54175 25291 ft 368 kts 265°
2026-04-21 19:24 51.92053 2.50059 25037 ft 368 kts 265°
2026-04-21 19:24 51.91766 2.45940 24808 ft 367 kts 266°
2026-04-21 19:24 51.91480 2.41843 24554 ft 365 kts 266°
2026-04-21 19:25 51.91190 2.37745 24307 ft 363 kts 266°
2026-04-21 19:25 51.90906 2.33713 24076 ft 360 kts 265°
2026-04-21 19:25 51.90672 2.29676 23823 ft 359 kts 269°
2026-04-21 19:25 51.90570 2.25661 23551 ft 356 kts 270°
2026-04-21 19:26 51.90505 2.21670 23235 ft 352 kts 271°
2026-04-21 19:26 51.90442 2.17735 22886 ft 349 kts 271°
2026-04-21 19:26 51.90369 2.13815 22549 ft 347 kts 270°
2026-04-21 19:26 51.90287 2.09928 22221 ft 344 kts 270°
2026-04-21 19:27 51.90201 2.06070 21885 ft 342 kts 269°
2026-04-21 19:27 51.90110 2.02240 21540 ft 340 kts 269°
2026-04-21 19:27 51.90018 1.98421 21195 ft 338 kts 269°
2026-04-21 19:27 51.89924 1.94629 20867 ft 337 kts 270°
2026-04-21 19:28 51.89835 1.90844 20526 ft 335 kts 272°
2026-04-21 19:28 51.90220 1.87192 20182 ft 328 kts 294°
2026-04-21 19:28 51.91186 1.83869 19812 ft 326 kts 301°
2026-04-21 19:28 51.92266 1.80650 19480 ft 325 kts 303°
2026-04-21 19:29 51.93339 1.77437 19148 ft 323 kts 301°
2026-04-21 19:29 51.94414 1.74237 18813 ft 324 kts 300°
2026-04-21 19:29 51.95435 1.70969 18438 ft 324 kts 303°
2026-04-21 19:29 51.96527 1.67778 18079 ft 323 kts 303°
2026-04-21 19:30 51.97613 1.64606 17733 ft 322 kts 303°
2026-04-21 19:30 51.98693 1.61426 17421 ft 319 kts 301°
2026-04-21 19:30 51.99751 1.58298 17131 ft 316 kts 301°
2026-04-21 19:30 52.00779 1.55152 16791 ft 315 kts 300°
2026-04-21 19:31 52.01802 1.52005 16461 ft 315 kts 301°
2026-04-21 19:31 52.02828 1.48830 16133 ft 318 kts 301°
2026-04-21 19:31 52.03868 1.45660 15812 ft 321 kts 300°
2026-04-21 19:31 52.04913 1.42464 15498 ft 320 kts 300°
2026-04-21 19:32 52.05952 1.39277 15171 ft 318 kts 299°
2026-04-21 19:32 52.06982 1.36105 14848 ft 317 kts 299°
2026-04-21 19:32 52.08009 1.32943 14529 ft 316 kts 299°
2026-04-21 19:32 52.09031 1.29791 14217 ft 315 kts 299°
2026-04-21 19:33 52.09719 1.27665 13983 ft 314 kts 299°
2026-04-21 19:33 52.11053 1.23504 13521 ft 312 kts 296°
2026-04-21 19:33 52.11546 1.20093 13180 ft 312 kts 269°
2026-04-21 19:33 52.11241 1.16644 12921 ft 307 kts 255°
2026-04-21 19:34 52.10695 1.13293 12590 ft 306 kts 253°
2026-04-21 19:34 52.10115 1.09966 12237 ft 307 kts 253°
2026-04-21 19:34 52.09529 1.06615 11862 ft 309 kts 253°
2026-04-21 19:34 52.08946 1.03247 11484 ft 310 kts 253°
2026-04-21 19:35 52.08368 0.99869 11111 ft 310 kts 253°
2026-04-21 19:35 52.07223 0.93101 10387 ft 311 kts 253°
2026-04-21 19:35 52.06653 0.89723 10001 ft 311 kts 253°
2026-04-21 19:36 52.06082 0.86329 9599 ft 311 kts 253°
2026-04-21 19:36 52.05510 0.82941 9204 ft 311 kts 253°
2026-04-21 19:36 52.04940 0.79563 8809 ft 311 kts 253°
2026-04-21 19:36 52.04368 0.76177 8423 ft 311 kts 253°
2026-04-21 19:37 52.03795 0.72797 8045 ft 310 kts 253°
2026-04-21 19:37 52.03223 0.69422 7668 ft 310 kts 253°
2026-04-21 19:37 52.02651 0.66059 7291 ft 307 kts 253°
2026-04-21 19:37 52.02088 0.62757 6915 ft 299 kts 253°
2026-04-21 19:38 52.01457 0.59587 6500 ft 291 kts 241°
2026-04-21 19:38 52.00356 0.56915 6114 ft 281 kts 230°
2026-04-21 19:38 51.99578 0.55252 5862 ft 278 kts 230°
2026-04-21 19:38 51.98088 0.51955 5498 ft 266 kts 230°
2026-04-21 19:39 51.96981 0.49606 5207 ft 258 kts 228°
2026-04-21 19:39 51.95837 0.47432 4915 ft 252 kts 225°
2026-04-21 19:39 51.94684 0.45297 4623 ft 249 kts 225°
2026-04-21 19:39 51.93535 0.43181 4354 ft 251 kts 225°
2026-04-21 19:40 51.92376 0.41051 4114 ft 250 kts 225°
2026-04-21 19:40 51.91242 0.38959 3920 ft 243 kts 225°
2026-04-21 19:40 51.90126 0.36901 3735 ft 244 kts 225°
2026-04-21 19:40 51.88999 0.34821 3558 ft 247 kts 225°
2026-04-21 19:41 51.87858 0.32727 3390 ft 249 kts 225°
2026-04-21 19:41 51.86697 0.30609 3234 ft 248 kts 225°
2026-04-21 19:41 51.85558 0.28513 3046 ft 248 kts 225°
2026-04-21 19:41 51.84415 0.26412 2865 ft 248 kts 225°
2026-04-21 19:42 51.83283 0.24356 2673 ft 248 kts 225°
2026-04-21 19:42 51.82117 0.22237 2566 ft 250 kts 225°
2026-04-21 19:42 51.80969 0.20147 2505 ft 247 kts 225°
2026-04-21 19:42 51.79836 0.18082 2507 ft 246 kts 225°
2026-04-21 19:43 51.78693 0.16002 2511 ft 249 kts 225°
2026-04-21 19:43 51.77550 0.13917 2500 ft 247 kts 225°
2026-04-21 19:43 51.76406 0.11829 2492 ft 241 kts 225°
2026-04-21 19:43 51.75579 0.09655 2463 ft 223 kts 257°
2026-04-21 19:44 51.75745 0.07372 2469 ft 193 kts 307°
2026-04-21 19:44 51.76654 0.06262 2476 ft 145 kts
2026-04-21 19:44 51.77477 0.06807 2500 ft 126 kts 57°
2026-04-21 19:44 51.78068 0.07850 2491 ft 127 kts 44°
2026-04-21 19:45 51.78726 0.08763 2498 ft 124 kts 50°
2026-04-21 19:45 51.79353 0.09735 2508 ft 126 kts 50°
2026-04-21 19:45 51.79990 0.10704 2418 ft 126 kts 49°
2026-04-21 19:45 51.80628 0.11664 2255 ft 124 kts 49°
2026-04-21 19:46 51.81253 0.12603 2086 ft 122 kts 48°
2026-04-21 19:46 51.81870 0.13530 1930 ft 122 kts 48°
2026-04-21 19:46 51.82497 0.14473 1772 ft 125 kts 47°
2026-04-21 19:46 51.83137 0.15436 1603 ft 127 kts 46°
2026-04-21 19:47 51.83800 0.16422 1400 ft 129 kts 45°
2026-04-21 19:47 51.84455 0.17366 1201 ft 126 kts 45°
2026-04-21 19:47 51.85106 0.18363 1037 ft 128 kts 47°
2026-04-21 19:47 51.85751 0.19365 848 ft 132 kts 44°
2026-04-21 19:48 51.86434 0.20376 675 ft 134 kts 44°
2026-04-21 19:48 51.87120 0.21414 513 ft 131 kts 44°
2026-04-21 19:48 51.87773 0.22383 365 ft 128 kts 43°
2026-04-21 19:48 51.88374 0.23290 338 ft 104 kts 42°
2026-04-21 19:49 51.88782 0.23901 343 ft 59 kts 43°
2026-04-21 19:49 51.89011 0.24264 349 ft 23 kts 55°
2026-04-21 19:49 51.89091 0.24485 350 ft 23 kts 67°
2026-04-21 19:49 51.89133 0.24661 347 ft 5 kts 69°
2026-04-21 19:50 51.89142 0.24697 345 ft 5 kts 69°
2026-04-21 19:50 51.89160 0.24771 342 ft 5 kts 69°
2026-04-21 19:50 51.89168 0.24827 345 ft 5 kts 86°
2026-04-21 19:50 51.89158 0.24882 350 ft 5 kts 116°
2026-04-21 19:51 51.89152 0.24923 350 ft 0 kts 117°